Flag for Congo Dem.Rep. Weather past 2 weeks in Bukavu, Congo Dem.Rep.

Now
66 °F

Passing clouds.


Feels Like: 66 °F
Forecast: 53 / 73 °F
Wind: No wind

Location: Kigali Airport

Current Time: Jul 30, 2014 at 2:24:59 AM

Latest Report: Jul 30, 2014 at 1:30 AM


Visibility: N/A

Pressure: 30.15 "Hg

Humidity: 56%

Dew point: 50 °F

Location of BukavuLocation

Historic Weather in Bukavu — Graph

°F

Bukavu temperature yesterday

Maximum temperature yesterday: 81 °F (at 2:30 PM)
Minimum temperature yesterday: 59 °F (at 6:00 AM)
Average temperature yesterday: 71 °F

Past Weeks' High & Low Weather Summary

 TemperatureHumidityPressure
High84 °F (Jul 19, 2:00 PM)100% (Jul 19, 4:00 AM)30.27 "Hg (Jul 19, 4:00 AM)
Low55 °F (Jul 19, 4:00 AM)32% (Jul 23, 3:00 PM)30.07 "Hg (Jul 25, 3:00 PM)
Average72 °F62%30.16 "Hg
* Reported Jul 15 1:00 AM — Jul 30 1:30 AM, Bukavu, Weather by CustomWeather, © 2014

Note: Actual official high and low records may vary slightly from our data, if they occured in-between our weather recording intervals... More about our weather records

Advertising

Bukavu weather history for previous 24 hours

 ConditionsComfort  
Time TempWeatherWind HumidityBarometerVisibility
1:30 AM
Jul 30
66 °FPassing clouds.No wind56%30.15 "HgN/A
1:00 AM68 °FPassing clouds.No wind56%30.15 "HgN/A
12:30 AM68 °FPassing clouds.No wind56%30.15 "HgN/A
12:00 AM68 °FPassing clouds.No wind56%30.15 "HgN/A
11:00 PM
Jul 29
70 °FPassing clouds.No wind53%30.15 "HgN/A
10:30 PM72 °FPassing clouds.5 mph50%30.15 "HgN/A
10:00 PM72 °FPassing clouds.5 mph50%30.15 "HgN/A
9:30 PM73 °FPassing clouds.6 mph47%30.15 "HgN/A
8:30 PM73 °FPassing clouds.3 mph47%30.15 "HgN/A
8:00 PM75 °FPassing clouds.3 mph47%30.12 "HgN/A
7:30 PM75 °FPassing clouds.3 mph44%30.12 "HgN/A
7:00 PM77 °FPassing clouds.6 mph39%30.12 "HgN/A
6:00 PM79 °FScattered clouds.5 mph39%30.09 "HgN/A
5:30 PM81 °FScattered clouds.8 mph37%30.09 "HgN/A
5:00 PM81 °FScattered clouds.9 mph37%30.09 "HgN/A
4:30 PM81 °FScattered clouds.10 mph37%30.09 "HgN/A
3:30 PM81 °FScattered clouds.10 mph37%30.09 "HgN/A
2:30 PM81 °FScattered clouds.8 mph37%30.12 "HgN/A
2:00 PM79 °FScattered clouds.10 mph42%30.15 "HgN/A
1:30 PM79 °FScattered clouds.13 mph39%30.18 "HgN/A
1:00 PM77 °FScattered clouds.12 mph42%30.18 "HgN/A
12:30 PM75 °FScattered clouds.6 mph44%30.21 "HgN/A
12:00 PM75 °FScattered clouds.12 mph44%30.21 "HgN/A
11:30 AM73 °FScattered clouds.14 mph50%30.24 "HgN/A
11:00 AM73 °FScattered clouds.14 mph50%30.24 "HgN/A
10:30 AM73 °FScattered clouds.13 mph50%30.27 "HgN/A
10:00 AM72 °FScattered clouds.13 mph53%30.27 "HgN/A
9:00 AM72 °FPassing clouds.12 mph57%30.27 "HgN/A
8:00 AM66 °FPassing clouds.5 mph78%30.27 "Hg5 mi
7:00 AM61 °FPassing clouds.No wind100%30.21 "Hg5 mi
6:30 AM61 °FPassing clouds.No wind100%30.21 "Hg5 mi
6:00 AM59 °FPassing clouds.No wind100%30.21 "Hg5 mi
5:30 AM61 °FPassing clouds.No wind100%30.18 "Hg5 mi
5:00 AM61 °FPassing clouds.No wind100%30.18 "Hg5 mi
4:00 AM61 °FPassing clouds.3 mph100%30.15 "HgN/A
2:30 AM63 °FPassing clouds.No wind100%30.15 "HgN/A
2:00 AM64 °FPassing clouds.3 mph88%30.15 "HgN/A
Weather by CustomWeather, © 2014

See weather overviewHow to use our weather pages